Location: Newark
(40.9833°N, 0.0333°W)
Time: 02:27:13
(UTC+00:00)

deb Explorer IX - Pass Details

Date: 31 October 2020
Orbit: 537 x 1105 km, 38.8° (Epoch: 02 December)

Event Time Altitude Azimuth Distance (km) Brightness Sun altitude
Rises 02:16:41 0° 190° (S) 3,006 - -47.4°
Reaches altitude 10° 02:20:35 10° 158° (SSE) 2,235 - -46.7°
Maximum altitude 02:22:25 12° 138° (SE) 2,181 - -46.4°
Drops below altitude 10° 02:24:20 10° 117° (ESE) 2,375 - -46.1°
Exits shadow 02:25:57 - 104° (ESE) 2,697 ? -45.8°
Sets 02:28:50 0° 88° (E) 3,478 ? -45.3°
